Regional Weather Roundup
Issued by NWS Sioux Falls, SD

Home | Current Version | Previous Version | Text Only | Print | Product List | Glossary On
Versions: 1 2 3 4 5 6 7 8 9 10 11 12 13 14 15 16 17 18 19 20 21 22 23 24 25 26 27 28 29 30 31 32 33 34 35 36 37 38 39 40 41 42 43 44 45 46 47 48 49 50
000
ASUS43 KFSD 280610
RWRFSD

WEATHER ROUNDUP FOR SE SOUTH DAKOTA/SW MINNESOTA/NW IOWA
NATIONAL WEATHER SERVICE SIOUX FALLS SD
100 AM CDT SAT MAY 28 2016

NOTE: "FAIR" INDICATES FEW OR NO CLOUDS BELOW 12,000 FEET WITH NO
SIGNIFICANT WEATHER AND OR OBSTRUCTIONS TO VISIBILITY.


SDZ038>040-050-052>070-280700-
SOUTHEAST SOUTH DAKOTA

CITY           SKY/WX    TMP DP  RH WIND       PRES   REMARKS
BROOKINGS      MOCLDY    60  56  86 NE5       29.76F
CHAMBERLAIN    CLOUDY    60  58  94 NW5       29.78F
6HR MIN TEMP:  60; 6HR MAX TEMP:  70;

HURON          CLOUDY    60  58  92 N3        29.77S
6HR MIN TEMP:  58; 6HR MAX TEMP:  69;

MADISON        FAIR      59  59 100 NE12      29.76F
MITCHELL       MOCLDY    62  60  93 N8        29.76S
6HR MIN TEMP:  62; 6HR MAX TEMP:  73; 6HR PCP: TRACE;

SIOUX FALLS    CLOUDY    63  57  81 N7        29.74S
6HR MIN TEMP:  60; 6HR MAX TEMP:  73;

WINNER         FAIR      57  53  86 NW6       29.80F
YANKTON        CLOUDY    63  57  82 S10G16    29.75R
$$

MNZ071-072-080-081-089-090-097-098-280700-
SOUTHWEST MINNESOTA

CITY           SKY/WX    TMP DP  RH WIND       PRES   REMARKS
FAIRMONT       CLOUDY    64  61  88 CALM      29.75F
JACKSON        CLOUDY    64  59  82 E8        29.76F
LUVERNE        CLOUDY    64  55  72 E9        29.74F
MARSHALL       CLOUDY    61  59  93 E9        29.77S
6HR MIN TEMP:  61; 6HR MAX TEMP:  73;

MONTEVIDEO     CLOUDY    61  57  88 E5        29.79F
PIPESTONE      MOCLDY    63  57  82 NE5       29.76S
REDWOOD FALLS  CLOUDY    62  59  90 NE5       29.77S
TRACY          PTCLDY    61  59  94 NE5       29.77R
WINDOM         CLOUDY    63  61  94 E3        29.76S
WORTHINGTON    PTCLDY    63  60  90 E9        29.75F
$$

IAZ001>003-012>014-020>022-031-032-NEZ013-014-SDZ071-280700-
NORTHWEST IOWA

CITY           SKY/WX    TMP DP  RH WIND       PRES   REMARKS
CHEROKEE       LGT RAIN  65  65 100 CALM      29.74S
DENISON        CLOUDY    64  63  94 S7G13     29.73S
ESTHERVILLE    MOCLDY    65  61  87 SE8       29.74F
LE MARS        CLOUDY    66  63  88 S9        29.74S
ORANGE CITY    LGT RAIN  66  61  82 SE5       29.74S
SHELDON        CLOUDY    66  61  82 E7        29.72F
SIOUX CITY     LGT RAIN  62  60  93 NW6       29.73F
6HR MIN TEMP:  62; 6HR MAX TEMP:  79; 6HR PCP:  1.14;

SPENCER        CLOUDY    68  60  75 S18       29.74F
6HR MIN TEMP:  66; 6HR MAX TEMP:  74;

STORM LAKE     RAIN      64  63  94 S14G25    29.76S
$$

ABBREVIATIONS USED IN REMARKS
   TC - TEMPERATURE IN CELSIUS
  WCI - WIND CHILL INDEX
   HX - HEAT INDEX
  VSB - VISIBILITY




USA.gov is the U.S. government's official web portal to all federal, state and local government web resources and services.